DW9421 Weather Reports


time (UTC)temp
C
wind
direction
speed
KPH
gust
KPH
rain 1hr
cm
rain 24hr
cm
rain mn
cm
humidity
%
barometer
mb
20260510060014 13 360 0.0 0.0 0.00 0.46 0.00 86 1010.0
20260510054513 13 360 0.0 0.0 0.00 0.46 0.00 86 1010.1
20260510053012 13 360 0.0 0.0 0.00 0.46 0.00 86 1010.3
20260510051509 14 360 0.0 0.0 0.00 0.46 0.00 85 1010.2
20260510050007 14 360 0.0 0.0 0.00 0.46 0.00 85 1010.2
20260510044506 15 360 0.0 0.0 0.00 0.46 0.00 84 1010.2
20260510043012 15 360 0.0 0.0 0.00 0.46 0.00 83 1010.2
20260510041502 15 360 0.0 0.0 0.00 0.46 0.00 83 1010.2
20260510040104 15 360 0.0 0.0 0.00 0.46 0.46 82 1010.1
20260510034611 15 360 0.0 0.0 0.00 0.46 0.46 82 1010.1
20260510033119 15 360 0.0 0.0 0.00 0.46 0.46 81 1010.0
20260510031600 16 360 0.0 0.0 0.00 0.46 0.46 80 1010.1
20260510030058 16 360 0.0 0.0 0.00 0.46 0.46 79 1010.0
20260510024602 16 360 0.0 0.0 0.00 0.46 0.46 79 1009.9
20260510023058 16 360 0.0 0.0 0.00 0.46 0.46 79 1009.8
20260510021557 17 360 0.0 0.0 0.00 0.46 0.46 78 1009.7
20260510020057 17 360 0.0 0.0 0.00 0.46 0.46 77 1009.6
20260510014557 17 360 0.0 1.6 0.00 0.46 0.46 76 1009.4
20260510013057 17 360 0.0 1.6 0.00 0.46 0.46 75 1009.2
20260510011558 18 360 0.0 1.6 0.00 0.46 0.46 73 1009.0
20260510010055 18 360 0.0 0.0 0.00 0.46 0.46 72 1008.8
20260510004558 18 360 0.0 1.6 0.00 0.46 0.46 71 1008.8
20260510003111 19 360 0.0 1.6 0.00 0.46 0.46 69 1008.6
20260510001554 20 360 0.0 6.4 0.00 0.46 0.46 68 1008.5
20260510000100 20 360 0.0 0.0 0.00 0.46 0.46 65 1008.3
20260509234604 20 360 0.0 0.0 0.00 0.46 0.46 64 1008.3
20260509233053 21 360 0.0 3.2 0.00 0.46 0.46 62 1008.1
20260509231555 21 360 0.0 0.0 0.00 0.46 0.46 62 1008.0
20260509230058 21 360 0.0 4.8 0.00 0.46 0.46 62 1008.1
20260509224551 21 360 0.0 1.6 0.00 0.46 0.46 62 1008.1
20260509223052 21 360 0.0 4.8 0.00 0.46 0.46 62 1008.0
20260509221551 21 360 0.0 0.0 0.00 0.46 0.46 61 1008.1
20260509220016 21 360 0.0 0.0 0.00 0.46 0.46 61 1008.1
20260509214515 21 360 0.0 8.0 0.00 0.46 0.46 60 1008.2
20260509213014 21 360 0.0 3.2 0.00 0.46 0.46 64 1008.1
20260509211512 20 360 0.0 4.8 0.00 0.46 0.46 65 1008.1
20260509210014 20 360 0.0 4.8 0.00 0.46 0.46 63 1008.0
20260509204509 20 360 0.0 4.8 0.00 0.46 0.46 68 1008.0
20260509203008 20 360 0.0 8.0 0.00 0.46 0.46 65 1007.9
20260509201508 19 360 0.0 8.0 0.00 0.46 0.46 74 1008.0
20260509200007 18 360 4.8 12.9 0.00 0.46 0.46 73 1008.3
20260509194504 18 360 0.0 1.6 0.00 0.46 0.46 78 1008.5
20260509193059 18 360 0.0 3.2 0.00 0.46 0.46 81 1008.9
20260509191558 18 360 0.0 0.0 0.00 0.46 0.46 85 1009.1
20260509190058 18 360 0.0 3.2 0.46 0.46 0.46 85 1009.2
20260509184556 18 360 0.0 0.0 0.46 0.46 0.46 83 1009.2
20260509183133 18 360 0.0 0.0 0.46 0.46 0.46 78 1009.3
20260509181607 19 360 0.0 0.0 0.46 0.46 0.46 71 1009.8
20260509180050 20 360 0.0 1.6 0.00 0.00 0.00 63 1009.9
20260509174547 20 360 0.0 1.6 0.00 0.00 0.00 61 1010.1
20260509173047 20 360 0.0 4.8 0.00 0.00 0.00 61 1010.0
20260509171545 20 360 1.6 6.4 0.00 0.00 0.00 60 1010.1
20260509170042 20 360 0.0 9.7 0.00 0.00 0.00 62 1010.2
20260509164537 19 360 3.2 11.3 0.00 0.00 0.00 62 1010.4
20260509163037 19 360 3.2 9.7 0.00 0.00 0.00 62 1010.4
20260509161537 19 360 0.0 8.0 0.00 0.00 0.00 63 1010.3
20260509160035 19 360 1.6 8.0 0.00 0.00 0.00 61 1010.4
20260509154533 19 360 4.8 12.9 0.00 0.00 0.00 60 1010.5
20260509153031 19 360 0.0 14.5 0.00 0.00 0.00 62 1010.7
20260509151527 18 360 1.6 8.0 0.00 0.00 0.00 64 1010.8
20260509150023 17 360 0.0 3.2 0.00 0.00 0.00 66 1011.0
20260509144528 16 360 0.0 4.8 0.00 0.00 0.00 68 1011.3
20260509143016 16 360 0.0 4.8 0.00 0.00 0.00 70 1011.5
20260509141514 15 360 0.0 8.0 0.00 0.00 0.00 68 1011.5
20260509140013 15 360 0.0 3.2 0.00 0.00 0.00 69 1011.4
20260509134513 15 360 0.0 4.8 0.00 0.00 0.00 69 1011.4
20260509133012 15 360 0.0 6.4 0.00 0.00 0.00 69 1011.5
20260509131511 15 360 1.6 11.3 0.00 0.00 0.00 68 1011.5
20260509130012 15 360 0.0 6.4 0.00 0.00 0.00 68 1011.6
20260509124511 15 360 0.0 3.2 0.00 0.00 0.00 68 1011.4
20260509123009 15 360 0.0 3.2 0.00 0.00 0.00 67 1011.2
20260509121508 15 360 1.6 8.0 0.00 0.00 0.00 66 1011.2
20260509120008 15 360 0.0 9.7 0.00 0.00 0.00 65 1011.3
20260509114507 15 360 3.2 9.7 0.00 0.00 0.00 64 1011.3
20260509113006 15 360 0.0 6.4 0.00 0.00 0.00 64 1011.2
20260509111504 14 360 1.6 9.7 0.00 0.00 0.00 63 1011.1
20260509110003 14 360 0.0 8.0 0.00 0.00 0.00 61 1011.2
20260509104503 14 360 0.0 4.8 0.00 0.00 0.00 59 1011.2
20260509103004 14 360 0.0 3.2 0.00 0.00 0.00 59 1010.9
20260509101502 14 360 0.0 1.6 0.00 0.00 0.00 59 1010.9
20260509100001 14 360 0.0 1.6 0.00 0.00 0.00 60 1010.7
20260509094600 14 360 0.0 3.2 0.00 0.00 0.00 59 1010.7
20260509093100 14 360 0.0 3.2 0.00 0.00 0.00 60 1010.9
20260509091558 14 360 0.0 3.2 0.00 0.00 0.00 60 1011.0
20260509090100 14 360 0.0 4.8 0.00 0.00 0.00 61 1011.0
20260509084558 14 360 0.0 3.2 0.00 0.00 0.00 62 1011.1
20260509083055 14 360 0.0 3.2 0.00 0.00 0.00 62 1011.2
20260509081553 14 360 0.0 4.8 0.00 0.00 0.00 62 1011.5
20260509080056 14 360 0.0 4.8 0.00 0.00 0.00 61 1011.7
20260509074552 14 360 0.0 4.8 0.00 0.00 0.00 61 1011.6
20260509073051 14 360 1.6 6.4 0.00 0.00 0.00 61 1011.7
20260509071549 14 360 1.6 8.0 0.00 0.00 0.00 61 1011.6
20260509070049 14 360 1.6 8.0 0.00 0.00 0.00 59 1011.7
20260509064551 14 360 1.6 6.4 0.00 0.00 0.00 59 1011.8
20260509063046 14 360 0.0 6.4 0.00 0.00 0.00 58 1011.9
20260509061545 14 360 1.6 9.7 0.00 0.00 0.00 58 1012.0